When you browse on this site, cookies collect data to enhance your experience and personalize the content and advertising you see.
Visit our Privacy Policy to learn more. By continuing to use the site, you agree to this use of cookies and data.
  • In Hungary
  • List of Countries
  • For 7 days
  • Water Temperature
  • Satellite Maps
  • Weather Map
  • News
  • Weather Widgets
  • user-avatar
    Login

    Hourly Weather Skrzypiow

    Today, 24 May, Friday

    Time Temperature Precipitation Wind Pressure Humidity
    00:00 +12°C° 0.4 mm 4 mps 744 mmHg 95%
    01:00 +12°C° 0.4 mm 4 mps 744 mmHg 95%
    02:00 +12°C° 0.1 mm 4 mps 744 mmHg 95%
    03:00 +12°C° 0.1 mm 4 mps 744 mmHg 95%
    04:00 +12°C° 0.1 mm 4 mps 744 mmHg 96%
    05:00 +12°C° 0 mm 3 mps 744 mmHg 95%
    06:00 +12°C° 0 mm 3 mps 744 mmHg 93%
    07:00 +12°C° 0 mm 3 mps 744 mmHg 92%
    08:00 +13°C° 0 mm 3 mps 744 mmHg 90%
    09:00 +13°C° 0 mm 3 mps 744 mmHg 89%
    10:00 +15°C° 0 mm 2 mps 744 mmHg 87%
    11:00 +15°C° 0 mm 2 mps 744 mmHg 84%
    12:00 +16°C° 0 mm 2 mps 744 mmHg 81%
    13:00 +17°C° 0 mm 2 mps 744 mmHg 79%
    14:00 +17°C° 0 mm 2 mps 743 mmHg 77%
    15:00 +18°C° 0 mm 2 mps 743 mmHg 76%
    16:00 +18°C° 0 mm 3 mps 743 mmHg 74%
    17:00 +17°C° 0 mm 2 mps 743 mmHg 77%
    18:00 +17°C° 0 mm 2 mps 743 mmHg 80%
    19:00 +16°C° 0 mm 1 mps 742 mmHg 84%
    20:00 +15°C° 0 mm 1 mps 743 mmHg 85%
    21:00 +14°C° 0 mm 1 mps 743 mmHg 87%
    22:00 +13°C° 0 mm 1 mps 743 mmHg 89%
    23:00 +12°C° 0 mm 1 mps 743 mmHg 90%

    Tomorrow, 25 May, Saturday

    Time Temperature Precipitation Wind Pressure Humidity
    00:00 +12°C° 0 mm 1 mps 742 mmHg 91%
    01:00 +12°C° 0 mm 1 mps 742 mmHg 91%
    02:00 +12°C° 0 mm 1 mps 742 mmHg 92%
    03:00 +10°C° 0 mm 2 mps 742 mmHg 93%
    04:00 +10°C° 0 mm 2 mps 742 mmHg 94%
    05:00 +13°C° 0 mm 2 mps 742 mmHg 89%
    06:00 +14°C° 0 mm 2 mps 742 mmHg 84%
    07:00 +16°C° 0 mm 2 mps 742 mmHg 79%
    08:00 +18°C° 0 mm 3 mps 743 mmHg 71%
    09:00 +19°C° 0 mm 3 mps 743 mmHg 64%
    10:00 +20°C° 0 mm 3 mps 743 mmHg 56%
    11:00 +21°C° 0 mm 3 mps 742 mmHg 55%
    12:00 +22°C° 0 mm 3 mps 742 mmHg 54%
    13:00 +22°C° 0 mm 3 mps 742 mmHg 53%
    14:00 +22°C° 0.2 mm 3 mps 742 mmHg 58%
    15:00 +22°C° 0.2 mm 4 mps 742 mmHg 62%
    16:00 +21°C° 0.2 mm 4 mps 741 mmHg 66%
    17:00 +20°C° 0.2 mm 3 mps 742 mmHg 72%
    18:00 +19°C° 0.2 mm 3 mps 742 mmHg 78%
    19:00 +17°C° 0.2 mm 2 mps 742 mmHg 84%
    20:00 +16°C° 0 mm 2 mps 742 mmHg 86%
    21:00 +15°C° 0 mm 1 mps 742 mmHg 88%
    22:00 +14°C° 0 mm 1 mps 743 mmHg 90%
    23:00 +14°C° 0 mm 1 mps 743 mmHg 90%

    Day after tomorrow, 26 May, Sunday

    Time Temperature Precipitation Wind Pressure Humidity
    00:00 +13°C° 0 mm 1 mps 743 mmHg 90%
    01:00 +13°C° 0 mm 1 mps 743 mmHg 90%
    02:00 +12°C° 0 mm 0 mps 743 mmHg 90%
    03:00 +12°C° 0 mm 0 mps 743 mmHg 90%
    04:00 +11°C° 0 mm 0 mps 742 mmHg 90%
    05:00 +13°C° 0 mm 0 mps 743 mmHg 88%
    06:00 +15°C° 0 mm 1 mps 743 mmHg 85%
    07:00 +18°C° 0 mm 1 mps 743 mmHg 82%
    08:00 +18°C° 0.2 mm 2 mps 743 mmHg 81%
    09:00 +18°C° 0.2 mm 2 mps 743 mmHg 80%
    10:00 +19°C° 0.2 mm 3 mps 742 mmHg 78%
    11:00 +20°C° 0.2 mm 4 mps 742 mmHg 75%
    12:00 +21°C° 0.2 mm 4 mps 742 mmHg 71%
    13:00 +21°C° 0.2 mm 5 mps 742 mmHg 67%
    14:00 +21°C° 0.1 mm 4 mps 742 mmHg 66%
    15:00 +22°C° 0.1 mm 4 mps 742 mmHg 64%
    16:00 +22°C° 0.1 mm 4 mps 742 mmHg 63%
    17:00 +20°C° 0.1 mm 3 mps 742 mmHg 68%
    18:00 +19°C° 0.1 mm 2 mps 742 mmHg 74%
    19:00 +19°C° 0.1 mm 1 mps 742 mmHg 79%
    20:00 +18°C° 0 mm 1 mps 742 mmHg 82%
    21:00 +16°C° 0 mm 1 mps 742 mmHg 84%
    22:00 +13°C° 0 mm 0 mps 743 mmHg 86%
    23:00 +14°C° 0 mm 1 mps 743 mmHg 87%

    27 May, Monday

    Time Temperature Precipitation Wind Pressure Humidity
    00:00 +14°C° 0 mm 1 mps 743 mmHg 87%
    01:00 +14°C° 0 mm 1 mps 743 mmHg 88%
    02:00 +13°C° 0 mm 1 mps 742 mmHg 90%
    03:00 +13°C° 0 mm 1 mps 742 mmHg 91%
    04:00 +13°C° 0 mm 1 mps 742 mmHg 93%
    05:00 +15°C° 0 mm 2 mps 742 mmHg 89%
    06:00 +17°C° 0 mm 2 mps 742 mmHg 85%
    07:00 +18°C° 0 mm 3 mps 742 mmHg 82%
    08:00 +20°C° 0 mm 3 mps 742 mmHg 76%
    09:00 +21°C° 0 mm 3 mps 742 mmHg 70%
    10:00 +24°C° 0 mm 3 mps 742 mmHg 64%
    11:00 +24°C° 0.1 mm 3 mps 741 mmHg 63%
    12:00 +25°C° 0.1 mm 4 mps 741 mmHg 62%
    13:00 +25°C° 0.1 mm 4 mps 741 mmHg 61%
    14:00 +24°C° 0.8 mm 3 mps 741 mmHg 67%
    15:00 +22°C° 0.8 mm 3 mps 740 mmHg 73%
    16:00 +23°C° 0.8 mm 2 mps 740 mmHg 79%
    17:00 +21°C° 0.1 mm 2 mps 740 mmHg 81%
    18:00 +20°C° 0.1 mm 2 mps 740 mmHg 83%
    19:00 +19°C° 0.1 mm 2 mps 740 mmHg 86%
    20:00 +19°C° 0 mm 1 mps 740 mmHg 87%
    21:00 +19°C° 0 mm 1 mps 740 mmHg 87%
    22:00 +18°C° 0 mm 1 mps 740 mmHg 88%
    23:00 +18°C° 0 mm 1 mps 740 mmHg 89%

    28 May, Tuesday

    Time Temperature Precipitation Wind Pressure Humidity
    00:00 +15°C° 0 mm 0 mps 740 mmHg 90%
    01:00 +15°C° 0 mm 0 mps 740 mmHg 90%
    02:00 +15°C° 1.3 mm 0 mps 739 mmHg 92%
    03:00 +16°C° 1.3 mm 0 mps 739 mmHg 93%
    04:00 +16°C° 1.3 mm 0 mps 739 mmHg 94%
    05:00 +19°C° 0.3 mm 1 mps 739 mmHg 92%
    06:00 +20°C° 0.3 mm 1 mps 739 mmHg 89%
    07:00 +21°C° 0.3 mm 1 mps 738 mmHg 86%
    08:00 +22°C° 0 mm 1 mps 738 mmHg 80%
    09:00 +23°C° 0 mm 2 mps 738 mmHg 73%
    10:00 +24°C° 0 mm 2 mps 738 mmHg 67%
    11:00 +25°C° 0.2 mm 2 mps 738 mmHg 66%
    12:00 +25°C° 0.2 mm 2 mps 737 mmHg 65%
    13:00 +26°C° 0.2 mm 2 mps 737 mmHg 65%
    14:00 +25°C° 1.2 mm 2 mps 737 mmHg 69%
    15:00 +24°C° 1.2 mm 1 mps 737 mmHg 74%
    16:00 +23°C° 1.2 mm 1 mps 736 mmHg 79%
    17:00 +22°C° 0.8 mm 1 mps 736 mmHg 81%
    18:00 +19°C° 0.8 mm 0 mps 736 mmHg 84%
    19:00 +18°C° 0.8 mm 0 mps 736 mmHg 86%
    20:00 +17°C° 0.2 mm 0 mps 736 mmHg 87%
    21:00 +16°C° 0.2 mm 0 mps 736 mmHg 87%
    22:00 +16°C° 0.2 mm 1 mps 736 mmHg 87%
    23:00 +16°C° 0 mm 1 mps 736 mmHg 88%

    29 May, Wednesday

    Time Temperature Precipitation Wind Pressure Humidity
    00:00 +16°C° 0 mm 1 mps 737 mmHg 89%
    01:00 +15°C° 0 mm 1 mps 737 mmHg 90%
    02:00 +15°C° 0 mm 2 mps 737 mmHg 91%
    03:00 +15°C° 0 mm 2 mps 737 mmHg 92%
    04:00 +14°C° 0 mm 2 mps 737 mmHg 93%
    05:00 +16°C° 0 mm 2 mps 738 mmHg 91%
    06:00 +17°C° 0 mm 3 mps 738 mmHg 90%
    07:00 +18°C° 0 mm 3 mps 738 mmHg 89%
    08:00 +19°C° 0.2 mm 3 mps 739 mmHg 85%
    09:00 +20°C° 0.2 mm 3 mps 739 mmHg 80%
    10:00 +21°C° 0.2 mm 3 mps 739 mmHg 76%
    11:00 +22°C° 0.4 mm 4 mps 739 mmHg 74%
    12:00 +22°C° 0.4 mm 4 mps 740 mmHg 73%
    13:00 +22°C° 0.4 mm 4 mps 740 mmHg 71%
    14:00 +22°C° 0.5 mm 4 mps 740 mmHg 72%
    15:00 +22°C° 0.5 mm 4 mps 740 mmHg 73%
    16:00 +22°C° 0.5 mm 3 mps 740 mmHg 74%
    17:00 +21°C° 0.3 mm 3 mps 740 mmHg 78%
    18:00 +20°C° 0.3 mm 2 mps 741 mmHg 83%
    19:00 +18°C° 0.3 mm 2 mps 741 mmHg 88%
    20:00 +17°C° 0.1 mm 2 mps 741 mmHg 90%
    21:00 +16°C° 0.1 mm 2 mps 742 mmHg 93%
    22:00 +15°C° 0.1 mm 1 mps 742 mmHg 95%
    23:00 +15°C° 0 mm 2 mps 743 mmHg 95%
    Show more